H1 CPF 1 NER 2019 8 11 9 7231 glonass105 H2 0705202 9105 32276 2019 8 11 0 0 0 2019 8 14 23 45 0 900 1 1 0 0 0 H9 10 0 58706 0.00000 0 -9592088.575 5172514.607 23059789.933 10 0 58706 900.00000 0 -10158198.631 2365290.036 23278381.315 10 0 58706 1800.00000 0 -10936043.934 -389422.448 23044926.325 10 0 58706 2700.00000 0 -11902544.429 -3023597.596 22364109.018 10 0 58706 3600.00000 0 -13023200.455 -5474853.186 21249283.221 10 0 58706 4500.00000 0 -14253511.574 -7688795.343 19722203.887 10 0 58706 5400.00000 0 -15540831.207 -9621026.278 17812597.890 10 0 58706 6300.00000 0 -16826579.423 -11238732.758 15557582.860 10 0 58706 7200.00000 0 -18048721.206 -12521791.100 13000945.434 10 0 58706 8100.00000 0 -19144406.629 -13463344.724 10192292.745 10 0 58706 9000.00000 0 -20052662.659 -14069832.009 7186093.242 10 0 58706 9900.00000 0 -20717024.132 -14360464.915 4040625.118 10 0 58706 10800.00000 0 -21087993.921 -14366181.631 816852.208 10 0 58706 11700.00000 0 -21125229.352 -14128118.206 -2422751.329 10 0 58706 12600.00000 0 -20799363.197 -13695664.047 -5615405.145 10 0 58706 13500.00000 0 -20093382.702 -13124183.432 -8699232.786 10 0 58706 14400.00000 0 -19003508.382 -12472499.035 -11614454.703 10 0 58706 15300.00000 0 -17539535.024 -11800243.262 -14304541.404 10 0 58706 16200.00000 0 -15724619.682 -11165188.775 -16717304.837 10 0 58706 17100.00000 0 -13594524.181 -10620670.305 -18805907.260 10 0 58706 18000.00000 0 -11196342.445 -10213206.148 -20529768.358 10 0 58706 18900.00000 0 -8586764.106 -9980419.404 -21855353.356 10 0 58706 19800.00000 0 -5829945.064 -9949346.618 -22756827.056 10 0 58706 20700.00000 0 -2995072.136 -10135205.437 -23216561.094 10 0 58706 21600.00000 0 -153721.489 -10540673.837 -23225484.437 10 0 58706 22500.00000 0 2622880.637 -11155712.324 -22783269.870 10 0 58706 23400.00000 0 5266582.075 -11957937.804 -21898352.175 10 0 58706 24300.00000 0 7714901.269 -12913534.814 -20587776.757 10 0 58706 25200.00000 0 9913388.716 -13978667.199 -18876880.579 10 0 58706 26100.00000 0 11817655.069 -15101332.017 -16798810.522 10 0 58706 27000.00000 0 13394981.408 -16223578.623 -14393887.471 10 0 58706 27900.00000 0 14625444.323 -17283999.947 -11708827.553 10 0 58706 28800.00000 0 15502508.633 -18220391.013 -8795835.155 10 0 58706 29700.00000 0 16033062.966 -18972462.106 -5711585.116 10 0 58706 30600.00000 0 16236897.035 -19484491.196 -2516114.046 10 0 58706 31500.00000 0 16145643.192 -19707802.372 728356.955 10 0 58706 32400.00000 0 15801227.834 -19602964.179 3958644.339 10 0 58706 33300.00000 0 15253899.269 -19141613.538 7111843.937 10 0 58706 34200.00000 0 14559916.805 -18307826.872 10126566.978 10 0 58706 35100.00000 0 13779000.366 -17098979.493 12944144.968 10 0 58706 36000.00000 0 12971649.971 -15526056.192 15509778.890 10 0 58706 36900.00000 0 12196449.768 -13613399.532 17773609.465 10 0 58706 37800.00000 0 11507471.609 -11397906.312 19691687.250 10 0 58706 38700.00000 0 10951888.412 -8927705.948 21226823.753 10 0 58706 39600.00000 0 10567898.227 -6260376.433 22349307.313 10 0 58706 40500.00000 0 10383046.257 -3460772.640 23037470.664 10 0 58706 41400.00000 0 10413014.857 -598557.653 23278100.142 10 0 58706 42300.00000 0 10660931.558 2254460.077 23066679.657 10 0 58706 43200.00000 0 11117223.134 5027073.436 22407465.901 10 0 58706 44100.00000 0 11760020.834 7651393.852 21313394.292 10 0 58706 45000.00000 0 12556098.795 10065427.125 19805818.353 10 0 58706 45900.00000 0 13462305.534 12215402.361 17914088.158 10 0 58706 46800.00000 0 14427427.922 14057758.884 15674976.325 10 0 58706 47700.00000 0 15394409.201 15560710.227 13131962.796 10 0 58706 48600.00000 0 16302827.896 16705321.961 10334392.121 10 0 58706 49500.00000 0 17091533.781 17486060.258 7336519.246 10 0 58706 50400.00000 0 17701330.401 17910789.825 4196461.975 10 0 58706 51300.00000 0 18077591.817 18000222.798 975079.921 10 0 58706 52200.00000 0 18172703.848 17786842.755 -2265198.808 10 0 58706 53100.00000 0 17948227.321 17313349.804 -5461580.832 10 0 58706 54000.00000 0 17376692.362 16630692.485 -8552117.785 10 0 58706 54900.00000 0 16442947.949 15795769.418 -11476900.656 10 0 58706 55800.00000 0 15145009.468 14868897.217 -14179215.369 10 0 58706 56700.00000 0 13494367.702 13911150.940 -16606637.674 10 0 58706 57600.00000 0 11515744.988 12981688.571 -18712046.516 10 0 58706 58500.00000 0 9246307.262 12135171.655 -20454536.578 10 0 58706 59400.00000 0 6734363.112 11419390.284 -21800212.616 10 0 58706 60300.00000 0 4037602.204 10873192.050 -22722850.416 10 0 58706 61200.00000 0 1220944.698 10524802.124 -23204411.520 10 0 58706 62100.00000 0 -1645910.679 10390605.302 -23235401.591 10 0 58706 63000.00000 0 -4491139.568 10474441.834 -22815065.040 10 0 58706 63900.00000 0 -7243536.838 10767447.409 -21951411.469 10 0 58706 64800.00000 0 -9835240.321 11248445.010 -20661072.529 10 0 58706 65700.00000 0 -12204320.791 11884873.241 -18968990.922 10 0 58706 66600.00000 0 -14297130.572 12634213.047 -16907946.511 10 0 58706 67500.00000 0 -16070312.988 13445853.531 -14517927.648 10 0 58706 68400.00000 0 -17492388.577 14263318.774 -11845359.058 10 0 58706 69300.00000 0 -18544851.472 15026761.765 -8942200.707 10 0 58706 70200.00000 0 -19222729.862 15675619.805 -5864934.916 10 0 58706 71100.00000 0 -19534587.046 16151318.417 -2673461.594 10 0 58706 72000.00000 0 -19501963.256 16399908.261 570076.281 10 0 58706 72900.00000 0 -19158282.447 16374522.143 3802513.121 10 0 58706 73800.00000 0 -18547271.094 16037546.663 6960902.205 10 0 58706 74700.00000 0 -17720956.987 15362415.197 9983752.587 10 0 58706 75600.00000 0 -16737333.994 14334945.134 12812236.068 10 0 58706 76500.00000 0 -15657792.910 12954161.815 15391339.658 10 0 58706 77400.00000 0 -14544428.288 11232573.763 17670940.166 10 0 58706 78300.00000 0 -13457336.068 9195887.145 19606779.621 10 0 58706 79200.00000 0 -12452016.736 6882171.263 21161322.547 10 0 58706 80100.00000 0 -11576993.794 4340510.154 22304478.759 10 0 58706 81000.00000 0 -10871747.596 1629196.734 23014178.389 10 0 58706 81900.00000 0 -10365050.846 -1186455.061 23276788.994 10 0 58706 82800.00000 0 -10073774.730 -4036588.981 23087367.697 10 0 58706 83700.00000 0 -10002214.565 -6849473.175 22449744.644 10 0 58706 84600.00000 0 -10141961.897 -9554244.675 21376437.165 10 0 58706 85500.00000 0 -10472327.076 -12083618.410 19888397.147 10 0 58707 0.00000 0 -10961293.353 -14376449.427 18014597.192 10 0 58707 900.00000 0 -11566961.581 -16380043.190 15791463.591 10 0 58707 1800.00000 0 -12239423.905 -18052119.826 13262167.957 10 0 58707 2700.00000 0 -12922987.713 -19362351.230 10475790.162 10 0 58707 3600.00000 0 -13558655.948 -20293410.031 7486369.209 10 0 58707 4500.00000 0 -14086759.690 -20841486.950 4351859.793 10 0 58707 5400.00000 0 -14449632.435 -21016256.932 1133014.355 10 0 58707 6300.00000 0 -14594213.733 -20840296.358 -2107788.181 10 0 58707 7200.00000 0 -14474472.772 -20347976.602 -5307744.683 10 0 58707 8100.00000 0 -14053549.900 -19583880.859 -8404838.267 10 0 58707 9000.00000 0 -13305525.727 -18600810.898 -11339033.911 10 0 58707 9900.00000 0 -12216742.921 -17457467.374 -14053436.401 10 0 58707 10800.00000 0 -10786624.272 -16215900.886 -16495388.629 10 0 58707 11700.00000 0 -9027951.490 -14938840.374 -18617489.361 10 0 58707 12600.00000 0 -6966591.526 -13687010.588 -20378511.077 10 0 58707 13500.00000 0 -4640680.061 -12516550.731 -21744200.425 10 0 58707 14400.00000 0 -2099294.260 -11476642.197 -22687946.003 10 0 58707 15300.00000 0 599331.862 -10607444.704 -23191300.487 10 0 58707 16200.00000 0 3389977.142 -9938427.358 -23244346.865 10 0 58707 17100.00000 0 6202899.646 -9487164.811 -22845901.230 10 0 58707 18000.00000 0 8966498.609 -9258649.495 -22003547.531 10 0 58707 18900.00000 0 11610062.517 -9245149.337 -20733502.728 10 0 58707 19800.00000 0 14066489.855 -9426617.674 -19060313.908 10 0 58707 20700.00000 0 16274869.578 -9771638.803 -17016392.164 10 0 58707 21600.00000 0 18182813.892 -10238869.994 -14641391.207 10 0 58707 22500.00000 0 19748445.761 -10778919.529 -11981441.883 10 0 58707 23400.00000 0 20941957.599 -11336581.623 -9088256.902 10 0 58707 24300.00000 0 21746675.535 -11853333.484 -6018122.933 10 0 58707 25200.00000 0 22159584.292 -12269988.220 -2830799.791 10 0 58707 26100.00000 0 22191290.548 -12529390.277 411651.203 10 0 58707 27000.00000 0 21865426.606 -12579037.933 3646085.991 10 0 58707 27900.00000 0 21217520.126 -12373520.289 6809518.775 10 0 58707 28800.00000 0 20293378.517 -11876664.050 9840359.697 10 0 58707 29700.00000 0 19147057.395 -11063297.813 12679623.803 10 0 58707 30600.00000 0 17838500.176 -9920558.029 15272086.692 10 0 58707 31500.00000 0 16430949.734 -8448680.567 17567363.393 10 0 58707 32400.00000 0 14988242.433 -6661243.823 19520889.088 10 0 58707 33300.00000 0 13572099.386 -4584852.754 21094782.557 10 0 58707 34200.00000 0 12239529.420 -2258276.938 22258575.885 10 0 58707 35100.00000 0 11040452.878 268921.282 22989796.987 10 0 58707 36000.00000 0 10015645.527 2938211.261 23274394.618 10 0 58707 36900.00000 0 9195087.891 5684295.035 23106998.697 10 0 58707 37800.00000 0 8596787.900 8437593.356 22491012.058 10 0 58707 38700.00000 0 8226124.601 11126913.842 21438532.841 10 0 58707 39600.00000 0 8075738.822 13682190.889 19970109.917 10 0 58707 40500.00000 0 8125973.735 16037184.466 18114336.689 10 0 58707 41400.00000 0 8345845.408 18132026.778 15907291.472 10 0 58707 42300.00000 0 8694501.450 19915512.133 13391835.447 10 0 58707 43200.00000 0 9123105.616 21347036.177 10616781.667 10 0 58707 44100.00000 0 9577068.641 22398105.130 7635950.917 10 0 58707 45000.00000 0 9998531.190 23053353.377 4507132.394 10 0 58707 45900.00000 0 10328994.397 23311028.173 1290968.912 10 0 58707 46800.00000 0 10511987.301 23182922.200 -1950212.281 10 0 58707 47700.00000 0 10495658.930 22693757.548 -5153600.770 10 0 58707 48600.00000 0 10235185.909 21880047.425 -8257113.528 10 0 58707 49500.00000 0 9694894.029 20788483.498 -11200591.757 10 0 58707 50400.00000 0 8850004.117 19473916.446 -13926961.165 10 0 58707 51300.00000 0 7687928.083 17997014.103 -16383333.645 10 0 58707 52200.00000 0 6209059.589 16421694.912 -18522029.445 10 0 58707 53100.00000 0 4427024.814 14812443.720 -20301500.313 10 0 58707 54000.00000 0 2368381.040 13231621.776 -21687136.090 10 0 58707 54900.00000 0 71773.673 11736882.992 -22651939.311 10 0 58707 55800.00000 0 -2413415.176 10378804.247 -23177054.735 10 0 58707 56700.00000 0 -5028872.360 9198828.578 -23252143.403 10 0 58707 57600.00000 0 -7709540.445 8227607.253 -22875593.535 10 0 58707 58500.00000 0 -10386096.245 7483810.269 -22054563.539 10 0 58707 59400.00000 0 -12987619.452 6973455.324 -20804855.417 10 0 58707 60300.00000 0 -15444341.378 6689783.780 -19150619.977 10 0 58707 61200.00000 0 -17690359.808 6613689.271 -17123898.498 10 0 58707 62100.00000 0 -19666207.002 6714681.257 -14764008.671 10 0 58707 63000.00000 0 -21321163.446 6952343.179 -12116785.815 10 0 58707 63900.00000 0 -22615220.077 7278223.702 -9233693.545 10 0 58707 64800.00000 0 -23520606.256 7638080.834 -6170820.894 10 0 58707 65700.00000 0 -24022818.818 7974383.327 -2987785.493 10 0 58707 66600.00000 0 -24121108.513 8228962.491 253435.183 10 0 58707 67500.00000 0 -23828403.270 8345700.773 3489720.895 10 0 58707 68400.00000 0 -23170671.724 8273141.681 6658049.176 10 0 58707 69300.00000 0 -22185754.407 7966908.907 9696733.770 10 0 58707 70200.00000 0 -20921712.820 7391830.677 12546635.581 10 0 58707 71100.00000 0 -19434767.092 6523678.057 15152321.449 10 0 58707 72000.00000 0 -17786910.408 5350442.646 17463147.264 10 0 58707 72900.00000 0 -16043301.830 3873098.926 19434243.885 10 0 58707 73800.00000 0 -14269548.120 2105818.531 21027386.693 10 0 58707 74700.00000 0 -12528989.446 75627.219 22211732.106 10 0 58707 75600.00000 0 -10880103.003 -2178481.270 22964407.542 10 0 58707 76500.00000 0 -9374133.046 -4606937.443 23270944.298 10 0 58707 77400.00000 0 -8053045.804 -7151436.200 23125546.029 10 0 58707 78300.00000 0 -6947893.536 -9747148.330 22531188.771 10 0 58707 79200.00000 0 -6077654.583 -12325211.571 21499551.588 10 0 58707 80100.00000 0 -5448596.117 -14815397.970 20050780.025 10 0 58707 81000.00000 0 -5054184.357 -17148847.356 18213087.629 10 0 58707 81900.00000 0 -4875544.209 -19260754.137 16022203.557 10 0 58707 82800.00000 0 -4882447.451 -21092896.632 13520677.158 10 0 58707 83700.00000 0 -5034786.700 -22595904.836 10757052.895 10 0 58707 84600.00000 0 -5284472.241 -23731173.320 7784931.279 10 0 58707 85500.00000 0 -5577671.358 -24472340.582 4661933.736 10 0 58708 0.00000 0 -5857295.588 -24806274.192 1448591.042 10 0 58708 900.00000 0 -6065630.795 -24733521.149 -1792824.010 10 0 58708 1800.00000 0 -6147000.009 -24268206.013 -4999496.457 10 0 58708 2700.00000 0 -6050345.492 -23437380.145 -8109280.069 10 0 58708 3600.00000 0 -5731622.636 -22279850.875 -11061895.326 10 0 58708 4500.00000 0 -5155903.607 -20844538.511 -13800091.983 10 0 58708 5400.00000 0 -4299102.121 -19188430.117 -16270754.045 10 0 58708 6300.00000 0 -3149245.860 -17374215.021 -18425926.250 10 0 58708 7200.00000 0 -1707241.917 -15467700.441 -20223742.409 10 0 58708 8100.00000 0 12898.341 -13535114.553 -21629238.015 10 0 58708 9000.00000 0 1984386.353 -11640409.024 -22615031.583 10 0 58708 9900.00000 0 4168523.659 -9842673.114 -23161861.504 10 0 58708 10800.00000 0 6516075.453 -8193766.834 -23258967.896 10 0 58708 11700.00000 0 8969095.204 -6736271.657 -22904311.621 10 0 58708 12600.00000 0 11463126.243 -5501844.275 -22104625.572 10 0 58708 13500.00000 0 13929690.242 -4510042.198 -20875296.356 10 0 58708 14400.00000 0 16298960.182 -3767670.469 -19240077.633 10 0 58708 15300.00000 0 18502507.106 -3268677.045 -17230639.577 10 0 58708 16200.00000 0 20476006.370 -2994601.438 -14885962.138 10 0 58708 17100.00000 0 22161790.242 -2915557.724 -12251582.955 10 0 58708 18000.00000 0 23511139.521 -2991710.474 -9378713.971 10 0 58708 18900.00000 0 24486217.461 -3175180.882 -6323243.607 10 0 58708 19800.00000 0 25061564.093 -3412301.848 -3144644.008 10 0 58708 20700.00000 0 25225087.376 -3646125.635 95194.720 10 0 58708 21600.00000 0 24978508.995 -3819076.550 3333179.789 10 0 58708 22500.00000 0 24337245.837 -3875634.810 6506255.654 10 0 58708 23400.00000 0 23329732.288 -3764936.223 9552643.091 10 0 58708 24300.00000 0 21996212.460 -3443175.984 12413052.022 10 0 58708 25200.00000 0 20387054.041 -2875713.318 15031843.347 10 0 58708 26100.00000 0 18560655.799 -2038786.785 17358116.231 10 0 58708 27000.00000 0 16581037.857 -920766.789 19346699.221 10 0 58708 27900.00000 0 14515216.905 477108.162 20959025.871 10 0 58708 28800.00000 0 12430477.267 2140542.800 22163878.099 10 0 58708 29700.00000 0 10391652.479 4042552.172 22937983.572 10 0 58708 30600.00000 0 8458530.987 6144369.124 23266456.454 10 0 58708 31500.00000 0 6683493.857 8396854.171 23143074.039 10 0 58708 32400.00000 0 5109482.008 10742348.941 22570385.051 10 0 58708 33300.00000 0 3768376.319 13116896.062 21559648.535 10 0 58708 34200.00000 0 2679856.418 15452733.221 20130605.399 10 0 58708 35100.00000 0 1850783.815 17680958.053 18311087.667 10 0 58708 36000.00000 0 1275133.077 19734253.606 16136473.385 10 0 58708 36900.00000 0 934472.043 21549561.604 13648997.878 10 0 58708 37800.00000 0 798969.246 23070593.116 10896934.634 10 0 58708 38700.00000 0 828884.858 24250072.898 7933661.369 10 0 58708 39600.00000 0 976481.554 25051624.658 4816629.097 10 0 58708 40500.00000 0 1188274.195 25451219.384 1606253.720 10 0 58708 41400.00000 0 1407523.242 25438126.886 -1635248.885 10 0 58708 42300.00000 0 1576866.732 25015331.223 -4845062.016 10 0 58708 43200.00000 0 1640979.807 24199392.947 -7960978.833 10 0 58708 44100.00000 0 1549149.710 23019763.889 -10922601.527 10 0 58708 45000.00000 0 1257657.619 21517582.982 -13672506.113 10 0 58708 45900.00000 0 731866.721 19744003.022 -16157350.710 10 0 58708 46800.00000 0 -52071.967 17758117.686 -18328906.294 10 0 58708 47700.00000 0 -1105968.589 15624574.690 -20144990.261 10 0 58708 48600.00000 0 -2428852.080 13410973.903 -21570285.059 10 0 58708 49500.00000 0 -4006769.166 11185158.099 -22577026.260 10 0 58708 50400.00000 0 -5813135.013 9012508.615 -23145546.732 10 0 58708 51300.00000 0 -7809622.911 6953357.920 -23264666.247 10 0 58708 52200.00000 0 -9947558.001 5060626.408 -22931918.567 10 0 58708 53100.00000 0 -12169758.813 3377781.649 -22153610.955 10 0 58708 54000.00000 0 -14412751.620 1937204.985 -20944714.105 10 0 58708 54900.00000 0 -16609266.656 759033.618 -19328583.597 10 0 58708 55800.00000 0 -18690912.961 -149473.321 -17336517.165 10 0 58708 56700.00000 0 -20590920.623 -794018.171 -15007155.347 10 0 58708 57600.00000 0 -22246835.764 -1192794.170 -12385736.167 10 0 58708 58500.00000 0 -23603054.973 -1375480.863 -9523217.758 10 0 58708 59400.00000 0 -24613092.153 -1381748.262 -6475285.665 10 0 58708 60300.00000 0 -25241481.702 -1259333.598 -3301264.212 10 0 58708 61200.00000 0 -25465236.981 -1061772.940 -62953.716 10 0 58708 62100.00000 0 -25274801.857 -845884.978 3176582.950 10 0 58708 63000.00000 0 -24674454.652 -669115.018 6354259.693 10 0 58708 63900.00000 0 -23682147.184 -586853.334 9408206.903 10 0 58708 64800.00000 0 -22328785.829 -649843.144 12278986.114 10 0 58708 65700.00000 0 -20656985.302 -901789.475 14910754.853 10 0 58708 66600.00000 0 -18719348.368 -1377271.418 17252358.021 10 0 58708 67500.00000 0 -16576344.669 -2100047.015 19258324.127 10 0 58708 68400.00000 0 -14293878.582 -3081823.074 20889746.907 10 0 58708 69300.00000 0 -11940648.814 -4321542.112 22115035.446 10 0 58708 70200.00000 0 -9585410.699 -5805216.587 22910518.942 10 0 58708 71100.00000 0 -7294255.588 -7506317.424 23260895.299 10 0 58708 72000.00000 0 -5128020.595 -9386700.370 23159515.921 10 0 58708 72900.00000 0 -3139935.714 -11398031.379 22608502.300 10 0 58708 73800.00000 0 -1373605.066 -13483651.470 21618693.189 10 0 58708 74700.00000 0 138595.306 -15580803.256 20209424.245 10 0 58708 75600.00000 0 1376638.294 -17623126.596 18408145.047 10 0 58708 76500.00000 0 2333440.624 -19543319.765 16249881.299 10 0 58708 77400.00000 0 3014908.983 -21275855.670 13776552.791 10 0 58708 78300.00000 0 3439437.458 -22759640.589 11036160.253 10 0 58708 79200.00000 0 3636879.032 -23940505.186 8081856.587 10 0 58708 80100.00000 0 3647035.647 -24773424.491 4970920.181 10 0 58708 81000.00000 0 3517731.283 -25224374.781 1763649.744 10 0 58708 81900.00000 0 3302549.808 -25271750.207 -1477798.391 10 0 58708 82800.00000 0 3058333.172 -24907280.255 -4690608.329 10 0 58708 83700.00000 0 2842545.517 -24136409.784 -7812515.301 10 0 58708 84600.00000 0 2710614.342 -22978125.575 -10783005.958 10 0 58708 85500.00000 0 2713360.754 -21464236.336 -13544485.353 10 0 58709 0.00000 0 2894627.164 -19638135.677 -16043388.425 10 0 58709 900.00000 0 3289203.010 -17553098.730 -18231215.153 10 0 58709 1800.00000 0 3921135.101 -15270183.219 -20065468.959 10 0 58709 2700.00000 0 4802496.631 -12855820.748 -21510481.439 10 0 58709 3600.00000 0 5932665.542 -10379198.172 -22538107.068 10 0 58709 4500.00000 0 7298145.562 -7909536.988 -23128274.609 10 0 58709 5400.00000 0 8872938.571 -5513383.099 -23269384.450 10 0 58709 6300.00000 0 10619454.903 -3252018.993 -22958543.753 10 0 58709 7200.00000 0 12489925.416 -1179105.562 -22201634.205 10 0 58709 8100.00000 0 14428258.161 661348.623 -21013210.221 10 0 58709 9000.00000 0 16372263.662 2236606.153 -19416228.523 10 0 58709 9900.00000 0 18256156.857 3526340.167 -17441613.247 10 0 58709 10800.00000 0 20013231.764 4523246.738 -15127663.958 10 0 58709 11700.00000 0 21578597.046 5233104.678 -12519317.100 10 0 58709 12600.00000 0 22891857.438 5674280.402 -9667274.646 10 0 58709 13500.00000 0 23899627.809 5876699.106 -6627016.541 10 0 58709 14400.00000 0 24557773.181 5880326.304 -3457716.248 10 0 58709 15300.00000 0 24833279.315 5733224.720 -221081.044 10 0 58709 16200.00000 0 24705673.977 5489269.956 3019859.485 10 0 58709 17100.00000 0 24167938.045 5205623.073 6201992.062 10 0 58709 18000.00000 0 23226867.384 4940068.684 9263359.938 10 0 58709 18900.00000 0 21902869.913 4748332.991 12144379.302 10 0 58709 19800.00000 0 20229206.463 4681496.863 14789007.069 10 0 58709 20700.00000 0 18250707.720 4783614.817 17145836.326 10 0 58709 21600.00000 0 16022021.807 5089641.645 19169097.645 10 0 58709 22500.00000 0 13605466.664 5623754.991 20819546.693 10 0 58709 23400.00000 0 11068577.955 6398145.025 22065221.111 10 0 58709 24300.00000 0 8481455.457 7412322.258 22882052.633 10 0 58709 25200.00000 0 5914018.917 8652972.529 23254323.519 10 0 58709 26100.00000 0 3433287.596 10094364.924 23174959.461 10 0 58709 27000.00000 0 1100796.121 11699295.278 22645654.457 10 0 58709 27900.00000 0 -1029746.970 13420525.544 21676826.243 10 0 58709 28800.00000 0 -2914461.997 15202658.657 20287404.038 10 0 58709 29700.00000 0 -4520880.778 16984370.611 18504453.379 10 0 58709 30600.00000 0 -5829045.276 18700906.735 16362645.668 10 0 58709 31500.00000 0 -6832078.533 20286738.216 13903582.899 10 0 58709 32400.00000 0 -7536206.157 21678268.418 11174990.582 10 0 58709 33300.00000 0 -7960229.363 22816476.432 8229794.191 10 0 58709 34200.00000 0 -8134473.248 23649387.910 5125096.787 10 0 58709 35100.00000 0 -8099255.693 24134270.284 1921077.143 10 0 58709 36000.00000 0 -7902942.197 24239460.962 -1320170.708 10 0 58709 36900.00000 0 -7599669.014 23945752.098 -4535834.391 10 0 58709 37800.00000 0 -7246830.766 23247274.027 -7663593.835 10 0 58709 38700.00000 0 -6902438.465 22151840.104 -10642822.645 10 0 58709 39600.00000 0 -6622459.224 20680738.046 -13415757.234 10 0 58709 40500.00000 0 -6458249.696 18867975.777 -15928611.549 10 0 58709 41400.00000 0 -6454191.402 16759012.297 -18132616.245 10 0 58709 42300.00000 0 -6645627.680 14409025.493 -19984962.461 10 0 58709 43200.00000 0 -7057189.555 11880787.858 -21449632.330 10 0 58709 44100.00000 0 -7701581.711 9242237.324 -22498100.346 10 0 58709 45000.00000 0 -8578880.618 6563843.136 -23109892.026 10 0 58709 45900.00000 0 -9676375.768 3915875.162 -23272988.946 10 0 58709 46800.00000 0 -10968962.299 1365689.195 -22984071.906 10 0 58709 47700.00000 0 -12420070.341 -1024859.572 -22248596.884 10 0 58709 48600.00000 0 -13983093.936 -3201767.893 -21080701.476 10 0 58709 49500.00000 0 -15603261.298 -5120903.106 -19502942.587 10 0 58709 50400.00000 0 -17219869.306 -6749604.999 -17545869.391 10 0 58709 51300.00000 0 -18768789.476 -8067804.135 -15247438.756 10 0 58709 52200.00000 0 -20185140.654 -9068609.944 -12652283.531 10 0 58709 53100.00000 0 -21406016.076 -9758343.949 -9810847.286 10 0 58709 54000.00000 0 -22373149.533 -10156017.123 -6778401.984 10 0 58709 54900.00000 0 -23035407.547 -10292273.873 -3613967.732 10 0 58709 55800.00000 0 -23351001.301 -10207847.970 -379156.202 10 0 58709 56700.00000 0 -23289323.836 -9951596.785 2863038.929 10 0 58709 57600.00000 0 -22832333.801 -9578198.314 6049479.864 10 0 58709 58500.00000 0 -21975426.369 -9145609.973 9118125.410 10 0 58709 59400.00000 0 -20727753.908 -8712398.399 12009249.090 10 0 58709 60300.00000 0 -19111982.485 -8335054.849 14666609.818 10 0 58709 61200.00000 0 -17163494.497 -8065411.204 17038551.331 10 0 58709 62100.00000 0 -14929071.164 -7948266.953 19079008.508 10 0 58709 63000.00000 0 -12465110.610 -8019328.172 20748400.886 10 0 58709 63900.00000 0 -9835456.727 -8303545.821 22014396.219 10 0 58709 64800.00000 0 -7108929.961 -8813923.423 22852529.939 10 0 58709 65700.00000 0 -4356663.301 -9550844.052 23246669.384 10 0 58709 66600.00000 0 -1649354.406 -10501944.419 23189314.852 10 0 58709 67500.00000 0 945452.261 -11642540.836 22681732.771 10 0 58709 68400.00000 0 3365941.213 -12936588.664 21733919.438 10 0 58709 69300.00000 0 5558353.777 -14338134.624 20364396.900 10 0 58709 70200.00000 0 7478972.897 -15793200.910 18599845.616 10 0 58709 71100.00000 0 9095684.246 -17242022.190 16474581.367 10 0 58709 72000.00000 0 10389050.628 -18621541.992 14029886.760 10 0 58709 72900.00000 0 11352856.938 -19868064.258 11313210.198 10 0 58709 73800.00000 0 11994104.923 -20919949.486 8377247.576 10 0 58709 74700.00000 0 12332459.643 -21720242.927 5278924.228 10 0 58709 75600.00000 0 12399172.318 -22219125.175 2078296.407 10 0 58709 76500.00000 0 12235525.907 -22376082.749 -1162606.874 10 0 58709 77400.00000 0 11890869.463 -22161707.829 -4380979.551 10 0 58709 78300.00000 0 11420324.425 -21559051.674 -7514449.065 10 0 58709 79200.00000 0 10882259.552 -20564474.674 -10502278.748 10 0 58709 80100.00000 0 10335640.802 -19187956.880 -13286539.078 10 0 58709 81000.00000 0 9837367.633 -17452855.171 -15813225.572 10 0 58709 81900.00000 0 9439707.733 -15395116.090 -18033302.088 10 0 58709 82800.00000 0 9187938.101 -13061975.977 -19903649.669 10 0 58709 83700.00000 0 9118291.835 -10510201.156 -21387902.910 10 0 58709 84600.00000 0 9256297.332 -7803939.947 -22457157.910 10 0 58709 85500.00000 0 9615580.333 -5012274.495 -23090538.120 99